TJS-17

Last updated on Tue Sep 22 2026 00:03:16 GMT+0000 (Coordinated Universal Time)

1 63524U 25073A 26264.57798715 -.00000073 00000+0 00000+0 0 9995 2 63524 1.3053 81.6490 0001353 172.7248 118.6737 1.00272070 5259
UTC large
Height (km)
Speed (km/s)
/
Latitude / Longitude
Inclination (degrees)
Orbital Period (minutes)
Azimuth
Elevation
Range (km)
Doppler Factor

Next 0 passes for location: London (51.5072 / 0.1276)

No passes found over London.
TJS-17